Weather in Smolchev-Malinovskiy

Russia / Republic of Adygea     44°51′58″N   40°25′47″E
temp.,
°C
wind,
m/s
gust,
m/s
humid.,
%
clouds,
%
prec.,
mm/h
press.,
hPa
HPBL,
m
13 may, thu
thu1300:00+9ese34890 0.0 101247
03:00+9s22880 0.0 101212
06:00+10s22820 0.0 101318
09:00+17e226613 0.0 1013344
12:00+22ene345784 0.0 1012599
15:00+24e576169 0.0 1012924
18:00+21ese51275100 0.0 1011344
21:00+17ese614810 0.0 1011269
14 may, fri
fri1400:00+14se48870 0.0 1010103
03:00+15s22595 0.0 101024
06:00+15se22620 0.0 101114
09:00+23ese34565 0.0 1011199
12:00+27e46535 0.0 1010498
15:00+29ene46580 0.0 1009855
18:00+26ene357644 0.0 1009122
21:00+20sse2286100 0.0 101014
15 may, sat
sat1500:00+18wsw4895100 0.0 1011143
03:00+15wsw37940 0.0 1012119
06:00+14wsw47900 0.0 1014160
09:00+20w23730 0.0 1014368
12:00+24nnw32725 0.0 1014629
15:00+25nne33675 0.0 10131083
18:00+25ne2378100 0.0 1012158
21:00+18se3379100 0.2 101230
16 may, sun
sun1600:00+17ese34935 0.0 101067
03:00+16ssw229335 0.0 101012
06:00+17ese229030 0.4 101050
09:00+21e237476 0.4 1009322
12:00+26ene456899 0.0 1007966
15:00+28ene566398 0.0 10051675
18:00+24ene49795 0.1 1004284
21:00+20ese388880 0.1 1004145
17 may, mon
mon1700:00+17ese338692 0.0 100437
03:00+17sse11910 0.0 100312
06:00+18sw228979 0.0 100440
09:00+23w458017 0.0 1004491
12:00+25nw557072 0.0 1005782
15:00+25n3472100 0.2 1007981
18:00+18s1279100 3.5 100816
21:00+15s01895 3.5 100911